| time (UTC) | temp F | wind direction | speed knots | gust knots | rain 1hr in | rain 24hr in | rain mn in | humidity % | barometer mb |
| 20260904131336 | 69 | 360 | 0.0 | 0.9 | 0.00 | 0.73 | 0.73 | 98 | 1012.1 |
| 20260904130327 | 69 | 276 | 0.0 | 0.0 | 0.00 | 0.73 | 0.73 | 98 | 1012.2 |
| 20260904125322 | 69 | 276 | 0.0 | 0.0 | 0.00 | 0.73 | 0.73 | 98 | 1012.2 |
| 20260904124315 | 69 | 276 | 0.0 | 0.0 | 0.00 | 0.73 | 0.73 | 98 | 1012.0 |
| 20260904123327 | 69 | 276 | 0.0 | 0.0 | 0.00 | 0.73 | 0.73 | 98 | 1012.0 |
| 20260904122323 | 68 | 276 | 0.0 | 0.0 | 0.00 | 0.73 | 0.73 | 98 | 1012.0 |
| 20260904121312 | 68 | 276 | 0.0 | 0.0 | 0.00 | 0.73 | 0.73 | 98 | 1012.0 |
| 20260904120330 | 68 | 276 | 0.0 | 0.0 | 0.00 | 0.73 | 0.73 | 98 | 1012.1 |
| 20260904115324 | 68 | 276 | 0.0 | 0.0 | 0.00 | 0.73 | 0.73 | 98 | 1012.2 |
| 20260904114318 | 68 | 276 | 0.0 | 0.0 | 0.00 | 0.73 | 0.73 | 98 | 1012.1 |
| 20260904113340 | 68 | 276 | 0.0 | 0.0 | 0.00 | 0.73 | 0.73 | 98 | 1011.8 |
| 20260904112340 | 68 | 276 | 0.0 | 0.0 | 0.00 | 0.73 | 0.73 | 98 | 1011.7 |
| 20260904111342 | 68 | 276 | 0.0 | 0.0 | 0.00 | 0.73 | 0.73 | 98 | 1011.6 |
| 20260904110316 | 68 | 276 | 0.0 | 0.0 | 0.00 | 0.73 | 0.73 | 97 | 1011.5 |
| 20260904105311 | 68 | 276 | 0.0 | 0.0 | 0.00 | 0.73 | 0.73 | 97 | 1011.5 |
| 20260904104329 | 68 | 276 | 0.0 | 0.0 | 0.00 | 0.73 | 0.73 | 97 | 1011.4 |
| 20260904103325 | 68 | 276 | 0.0 | 0.0 | 0.00 | 0.73 | 0.73 | 97 | 1011.3 |
| 20260904102334 | 68 | 276 | 0.0 | 0.0 | 0.00 | 0.73 | 0.73 | 97 | 1011.3 |
| 20260904101328 | 68 | 276 | 0.0 | 0.0 | 0.00 | 0.73 | 0.73 | 97 | 1011.2 |
| 20260904100318 | 68 | 276 | 0.0 | 0.0 | 0.00 | 0.73 | 0.73 | 97 | 1011.3 |
| 20260904095314 | 68 | 276 | 0.0 | 0.0 | 0.00 | 0.73 | 0.73 | 97 | 1011.1 |
| 20260904094335 | 69 | 276 | 0.0 | 0.9 | 0.00 | 0.73 | 0.73 | 98 | 1011.1 |
| 20260904093329 | 68 | 276 | 0.0 | 0.0 | 0.00 | 0.73 | 0.73 | 97 | 1010.8 |
| 20260904092323 | 68 | 276 | 0.0 | 0.9 | 0.02 | 0.73 | 0.73 | 97 | 1011.1 |
| 20260904091337 | 68 | 276 | 0.0 | 0.0 | 0.04 | 0.73 | 0.73 | 97 | 1011.0 |
| 20260904090350 | 68 | 276 | 0.0 | 0.0 | 0.08 | 0.73 | 0.73 | 97 | 1010.8 |
| 20260904085352 | 69 | 276 | 0.0 | 0.0 | 0.47 | 0.73 | 0.73 | 97 | 1010.7 |
| 20260904084325 | 69 | 276 | 0.0 | 0.0 | 0.71 | 0.73 | 0.73 | 97 | 1010.2 |
| 20260904083345 | 69 | 276 | 0.0 | 0.0 | 0.72 | 0.73 | 0.73 | 97 | 1010.2 |
| 20260904082315 | 69 | 276 | 0.0 | 0.0 | 0.71 | 0.71 | 0.71 | 97 | 1010.4 |
| 20260904081335 | 69 | 276 | 0.0 | 0.9 | 0.69 | 0.69 | 0.69 | 97 | 1010.9 |
| 20260904080331 | 69 | 37 | 0.9 | 5.2 | 0.62 | 0.62 | 0.62 | 97 | 1011.0 |
| 20260904075351 | 69 | 321 | 0.0 | 3.5 | 0.24 | 0.24 | 0.24 | 97 | 1011.4 |
| 20260904074326 | 70 | 308 | 0.0 | 0.0 | 0.02 | 0.02 | 0.02 | 97 | 1011.0 |
| 20260904073318 | 70 | 308 | 0.0 | 0.0 | 0.01 | 0.01 | 0.01 | 97 | 1010.9 |
| 20260904072337 | 70 | 308 | 0.0 | 0.0 | 0.00 | 0.00 | 0.00 | 97 | 1011.0 |
| 20260904071332 | 70 | 308 | 0.0 | 0.0 | 0.00 | 0.00 | 0.00 | 97 | 1010.9 |
| 20260904070334 | 70 | 308 | 0.0 | 0.0 | 0.00 | 0.00 | 0.00 | 97 | 1011.2 |
| 20260904065329 | 70 | 308 | 0.0 | 0.0 | 0.00 | 0.02 | 0.00 | 97 | 1011.2 |
| 20260904064321 | 70 | 308 | 0.0 | 0.0 | 0.00 | 0.02 | 0.00 | 97 | 1011.2 |
| 20260904063314 | 70 | 307 | 0.0 | 0.0 | 0.00 | 0.02 | 0.00 | 97 | 1011.5 |
| 20260904062335 | 70 | 309 | 0.0 | 0.0 | 0.00 | 0.02 | 0.00 | 97 | 1011.3 |
| 20260904061326 | 69 | 309 | 0.0 | 0.0 | 0.00 | 0.02 | 0.00 | 97 | 1011.4 |
| 20260904060320 | 69 | 309 | 0.0 | 0.0 | 0.00 | 0.02 | 0.00 | 97 | 1011.5 |
| 20260904055358 | 69 | 309 | 0.0 | 0.0 | 0.00 | 0.33 | 0.00 | 97 | 1011.7 |
| 20260904054328 | 69 | 309 | 0.0 | 0.0 | 0.00 | 0.33 | 0.00 | 97 | 1011.7 |
| 20260904053321 | 69 | 309 | 0.0 | 0.0 | 0.00 | 0.33 | 0.00 | 97 | 1011.8 |
| 20260904052334 | 69 | 309 | 0.0 | 0.0 | 0.00 | 0.33 | 0.00 | 97 | 1011.8 |
| 20260904051327 | 69 | 309 | 0.0 | 0.0 | 0.00 | 0.33 | 0.00 | 97 | 1012.0 |
| 20260904050323 | 69 | 309 | 0.0 | 0.0 | 0.00 | 0.33 | 0.00 | 97 | 1012.1 |
| 20260904045313 | 70 | 309 | 0.0 | 0.0 | 0.00 | 0.33 | 0.00 | 97 | 1012.1 |
| 20260904044326 | 70 | 309 | 0.0 | 0.0 | 0.00 | 0.33 | 0.00 | 97 | 1012.1 |
| 20260904043345 | 70 | 309 | 0.0 | 0.0 | 0.00 | 0.33 | 0.00 | 97 | 1012.3 |
| 20260904042343 | 70 | 309 | 0.0 | 0.0 | 0.00 | 0.33 | 0.00 | 97 | 1012.4 |
| 20260904041314 | 70 | 309 | 0.0 | 0.0 | 0.00 | 0.33 | 0.00 | 97 | 1012.5 |
| 20260904040355 | 70 | 309 | 0.0 | 0.0 | 0.00 | 0.33 | 0.00 | 97 | 1012.5 |
| 20260904035324 | 70 | 309 | 0.0 | 0.0 | 0.00 | 0.33 | 0.33 | 97 | 1012.6 |
| 20260904034315 | 70 | 309 | 0.0 | 0.0 | 0.00 | 0.33 | 0.33 | 97 | 1012.7 |
| 20260904033357 | 70 | 309 | 0.0 | 0.0 | 0.00 | 0.33 | 0.33 | 97 | 1012.5 |
| 20260904032334 | 70 | 309 | 0.0 | 0.0 | 0.00 | 0.33 | 0.33 | 97 | 1012.9 |
| 20260904031332 | 70 | 309 | 0.0 | 0.0 | 0.00 | 0.33 | 0.33 | 97 | 1013.0 |
| 20260904030326 | 70 | 309 | 0.0 | 0.0 | 0.00 | 0.33 | 0.33 | 96 | 1013.1 |
| 20260904025348 | 70 | 309 | 0.0 | 0.0 | 0.00 | 0.33 | 0.33 | 96 | 1013.1 |
| 20260904024349 | 70 | 309 | 0.0 | 0.0 | 0.00 | 0.33 | 0.33 | 96 | 1012.8 |
| 20260904023324 | 70 | 309 | 0.0 | 0.0 | 0.00 | 0.33 | 0.33 | 96 | 1013.2 |
| 20260904022320 | 70 | 309 | 0.0 | 0.0 | 0.00 | 0.33 | 0.33 | 96 | 1013.2 |
| 20260904021344 | 70 | 309 | 0.0 | 0.0 | 0.00 | 0.33 | 0.33 | 96 | 1013.2 |
| 20260904020345 | 70 | 309 | 0.0 | 0.0 | 0.00 | 0.33 | 0.33 | 96 | 1013.0 |
| 20260904015324 | 71 | 309 | 0.0 | 0.0 | 0.00 | 0.33 | 0.33 | 96 | 1013.2 |
| 20260904014323 | 71 | 309 | 0.0 | 0.0 | 0.00 | 0.33 | 0.33 | 96 | 1013.5 |
| 20260904013315 | 71 | 309 | 0.0 | 0.0 | 0.00 | 0.33 | 0.33 | 96 | 1013.6 |
| 20260904012335 | 71 | 309 | 0.0 | 0.0 | 0.00 | 0.33 | 0.33 | 96 | 1013.8 |
| 20260904011326 | 71 | 309 | 0.0 | 0.0 | 0.00 | 0.33 | 0.33 | 96 | 1013.7 |
| 20260904010349 | 71 | 309 | 0.0 | 0.0 | 0.00 | 0.33 | 0.33 | 95 | 1013.4 |
| 20260904005321 | 72 | 309 | 0.0 | 0.0 | 0.00 | 0.33 | 0.33 | 95 | 1013.3 |
| 20260904004340 | 72 | 309 | 0.0 | 0.0 | 0.00 | 0.33 | 0.33 | 95 | 1013.3 |
| 20260904003330 | 72 | 309 | 0.0 | 0.0 | 0.00 | 0.33 | 0.33 | 95 | 1013.3 |
| 20260904002322 | 72 | 309 | 0.0 | 0.0 | 0.00 | 0.33 | 0.33 | 95 | 1013.3 |
| 20260904001314 | 72 | 309 | 0.0 | 0.0 | 0.00 | 0.33 | 0.33 | 94 | 1013.5 |
| 20260904000335 | 73 | 309 | 0.0 | 0.0 | 0.00 | 0.33 | 0.33 | 94 | 1013.1 |
| 20260903235333 | 73 | 309 | 0.0 | 0.0 | 0.00 | 0.33 | 0.33 | 94 | 1012.9 |
| 20260903234332 | 73 | 309 | 0.0 | 0.9 | 0.00 | 0.33 | 0.33 | 93 | 1012.7 |
| 20260903233329 | 74 | 309 | 0.0 | 0.0 | 0.00 | 0.33 | 0.33 | 93 | 1012.7 |
| 20260903232322 | 74 | 309 | 0.0 | 0.0 | 0.00 | 0.33 | 0.33 | 92 | 1012.5 |
| 20260903231318 | 75 | 309 | 0.0 | 0.0 | 0.00 | 0.33 | 0.33 | 91 | 1012.6 |
| 20260903230337 | 76 | 309 | 0.0 | 0.0 | 0.00 | 0.33 | 0.33 | 91 | 1012.7 |
| 20260903225331 | 77 | 309 | 0.0 | 0.0 | 0.00 | 0.33 | 0.33 | 90 | 1012.5 |
| 20260903224324 | 78 | 309 | 0.0 | 0.0 | 0.00 | 0.33 | 0.33 | 89 | 1012.6 |
| 20260903223319 | 79 | 309 | 0.0 | 0.0 | 0.00 | 0.33 | 0.33 | 87 | 1012.6 |
| 20260903222321 | 79 | 309 | 0.0 | 0.0 | 0.00 | 0.33 | 0.33 | 86 | 1013.0 |
| 20260903221312 | 79 | 309 | 0.0 | 0.0 | 0.00 | 0.33 | 0.33 | 86 | 1013.0 |
| 20260903220330 | 79 | 309 | 0.0 | 0.0 | 0.00 | 0.33 | 0.33 | 86 | 1012.8 |
| 20260903215324 | 79 | 309 | 0.0 | 0.0 | 0.00 | 0.33 | 0.33 | 85 | 1012.8 |
| 20260903214338 | 79 | 309 | 0.0 | 0.0 | 0.00 | 0.33 | 0.33 | 87 | 1012.8 |
| 20260903213334 | 79 | 309 | 0.0 | 0.0 | 0.00 | 0.33 | 0.33 | 85 | 1012.9 |
| 20260903212331 | 79 | 309 | 0.0 | 0.0 | 0.00 | 0.33 | 0.33 | 82 | 1012.7 |
| 20260903211323 | 79 | 309 | 0.0 | 0.0 | 0.00 | 0.33 | 0.33 | 85 | 1012.7 |
| 20260903210335 | 78 | 309 | 0.0 | 0.0 | 0.00 | 0.33 | 0.33 | 87 | 1012.7 |
| 20260903205336 | 78 | 309 | 0.0 | 0.0 | 0.00 | 0.33 | 0.33 | 87 | 1013.1 |
| 20260903204336 | 78 | 309 | 0.0 | 0.0 | 0.00 | 0.33 | 0.33 | 86 | 1013.2 |
| 20260903203329 | 79 | 309 | 0.0 | 0.0 | 0.00 | 0.33 | 0.33 | 84 | 1013.2 |
| 20260903202320 | 80 | 309 | 0.0 | 0.0 | 0.00 | 0.33 | 0.33 | 82 | 1013.3 |
| 20260903201313 | 80 | 309 | 0.0 | 0.0 | 0.00 | 0.33 | 0.33 | 81 | 1013.1 |
| 20260903200331 | 80 | 306 | 0.0 | 0.0 | 0.00 | 0.33 | 0.33 | 80 | 1013.2 |
| 20260903195326 | 81 | 306 | 0.0 | 0.9 | 0.00 | 0.34 | 0.33 | 76 | 1013.1 |
| 20260903194321 | 80 | 29 | 0.0 | 1.7 | 0.00 | 0.34 | 0.33 | 78 | 1013.2 |
| 20260903193316 | 81 | 342 | 0.0 | 0.9 | 0.00 | 0.34 | 0.33 | 80 | 1013.4 |
| 20260903192337 | 81 | 304 | 0.0 | 0.0 | 0.00 | 0.34 | 0.33 | 78 | 1013.4 |
| 20260903191330 | 81 | 304 | 0.0 | 0.9 | 0.00 | 0.34 | 0.33 | 78 | 1013.4 |
| 20260903190325 | 81 | 289 | 0.0 | 0.9 | 0.00 | 0.34 | 0.33 | 77 | 1013.5 |
| 20260903185323 | 80 | 11 | 0.9 | 1.7 | 0.00 | 0.34 | 0.33 | 77 | 1013.6 |
| 20260903184337 | 80 | 297 | 0.0 | 2.6 | 0.00 | 0.34 | 0.33 | 80 | 1013.6 |
| 20260903183331 | 80 | 358 | 0.0 | 1.7 | 0.00 | 0.34 | 0.33 | 79 | 1013.7 |
| 20260903182350 | 79 | 353 | 0.0 | 1.7 | 0.00 | 0.34 | 0.33 | 79 | 1013.7 |
| 20260903181319 | 79 | 349 | 0.0 | 0.9 | 0.00 | 0.34 | 0.33 | 82 | 1013.8 |
| 20260903180341 | 78 | 321 | 0.0 | 1.7 | 0.00 | 0.34 | 0.33 | 80 | 1013.8 |
| 20260903175339 | 78 | 32 | 0.9 | 3.5 | 0.00 | 0.34 | 0.33 | 81 | 1013.9 |
| 20260903174336 | 77 | 345 | 0.0 | 2.6 | 0.00 | 0.34 | 0.33 | 84 | 1013.9 |
| 20260903173330 | 77 | 353 | 0.0 | 2.6 | 0.00 | 0.34 | 0.33 | 83 | 1014.0 |
| 20260903172321 | 77 | 342 | 0.0 | 2.6 | 0.00 | 0.34 | 0.33 | 83 | 1014.1 |
| 20260903171312 | 77 | 334 | 0.0 | 1.7 | 0.00 | 0.34 | 0.33 | 83 | 1014.1 |
| 20260903170351 | 77 | 137 | 0.0 | 1.7 | 0.00 | 0.34 | 0.33 | 85 | 1014.2 |
| 20260903165348 | 76 | 146 | 0.0 | 0.9 | 0.00 | 0.34 | 0.33 | 85 | 1014.3 |
| 20260903164318 | 76 | 302 | 0.0 | 0.9 | 0.00 | 0.34 | 0.33 | 86 | 1014.2 |
| 20260903163340 | 75 | 342 | 0.0 | 2.6 | 0.00 | 0.34 | 0.33 | 87 | 1014.2 |
| 20260903162331 | 75 | 325 | 0.9 | 1.7 | 0.00 | 0.34 | 0.33 | 86 | 1014.3 |
| 20260903161325 | 75 | 77 | 0.0 | 1.7 | 0.00 | 0.34 | 0.33 | 89 | 1014.6 |
| 20260903160317 | 74 | 40 | 0.0 | 1.7 | 0.00 | 0.34 | 0.33 | 88 | 1014.6 |
| 20260903155338 | 73 | 4 | 0.0 | 0.9 | 0.00 | 0.34 | 0.33 | 89 | 1014.7 |
| 20260903154316 | 73 | 203 | 0.0 | 1.7 | 0.00 | 0.34 | 0.33 | 90 | 1014.7 |
| 20260903153334 | 73 | 1 | 0.0 | 1.7 | 0.00 | 0.34 | 0.33 | 91 | 1014.8 |
| 20260903152329 | 72 | 59 | 0.0 | 0.9 | 0.00 | 0.34 | 0.33 | 93 | 1014.9 |
| 20260903151321 | 72 | 59 | 0.0 | 1.7 | 0.00 | 0.34 | 0.33 | 93 | 1014.9 |
| 20260903150315 | 72 | 33 | 0.0 | 0.9 | 0.00 | 0.34 | 0.33 | 96 | 1015.1 |
| 20260903145354 | 71 | 295 | 0.0 | 0.9 | 0.00 | 0.34 | 0.33 | 96 | 1015.0 |
| 20260903144324 | 71 | 164 | 0.0 | 0.9 | 0.00 | 0.34 | 0.33 | 97 | 1015.0 |
| 20260903143319 | 71 | 80 | 0.0 | 0.9 | 0.00 | 0.34 | 0.33 | 97 | 1014.9 |
| 20260903142314 | 70 | 80 | 0.0 | 0.9 | 0.00 | 0.34 | 0.33 | 97 | 1014.9 |
| 20260903141335 | 70 | 80 | 0.0 | 0.9 | 0.00 | 0.34 | 0.33 | 97 | 1015.1 |
| 20260903140350 | 70 | 80 | 0.0 | 0.9 | 0.00 | 0.34 | 0.33 | 97 | 1015.2 |
| 20260903135324 | 70 | 80 | 0.0 | 0.0 | 0.00 | 0.34 | 0.33 | 98 | 1015.3 |
| 20260903134316 | 70 | 78 | 0.0 | 0.0 | 0.00 | 0.34 | 0.33 | 98 | 1015.3 |
| 20260903133338 | 69 | 78 | 0.0 | 0.0 | 0.00 | 0.34 | 0.33 | 97 | 1015.3 |
| 20260903132333 | 69 | 78 | 0.0 | 0.0 | 0.00 | 0.34 | 0.33 | 98 | 1015.4 |